Tracking 30009 objects as of 7-Dec-2024
HD Live streaming from Space Station
objects crossing your sky now

STARLINK-31911

Track STARLINK-31911 now!
10-day predictions
STARLINK-31911 is classified as:


NORAD ID: 60587
Int'l Code: 2024-150E
Perigee: 481.4 km
Apogee: 483.4 km
Inclination: 53.2 °
Period: 94.1 minutes
Semi major axis: 6853 km
RCS: Unknown
Launch date: August 20, 2024
Source: United States (US)
Launch site: AIR FORCE EASTERN TEST RANGE (AFETR)
Your satellite tracking list
Your tracking list is empty




NASA's NSSDC Master Catalog

Two Line Element Set (TLE):
1 60587U 24150E   24342.38263336  .00000199  00000-0  18845-4 0  9996
2 60587  53.1619 271.3160 0001450  94.3972 265.7194 15.30192189 17941
Source of the keplerian elements: AFSPC